Time,TemperatureF,DewpointF,PressureIn,WindDirection,WindDirectionDegrees,WindSpeedMPH,WindSpeedGustMPH,Humidity,HourlyPrecipIn,Conditions,Clouds,dailyrainin,SoftwareType,DateUTC
2013-12-30 00:00:00,43.6,42.5,30.13,NNW,327,0.0,6.0,96,0.00,,,0.01,Wunderground v.1.15,2013-12-30 06:00:00,
2013-12-30 00:05:00,43.4,42.3,30.13,NNW,327,0.0,6.0,96,0.00,,,0.00,Wunderground v.1.15,2013-12-30 06:05:00,
2013-12-30 00:15:00,43.2,42.1,30.14,NNW,327,1.0,6.0,96,0.00,,,0.00,Wunderground v.1.15,2013-12-30 06:15:00,
2013-12-30 00:20:00,43.1,42.0,30.15,NNW,327,1.0,6.0,96,0.00,,,0.00,Wunderground v.1.15,2013-12-30 06:20:00,
2013-12-30 00:25:00,43.2,42.1,30.15,WNW,295,1.0,6.0,96,0.00,,,0.00,Wunderground v.1.15,2013-12-30 06:25:00,
2013-12-30 00:30:00,43.3,42.2,30.15,West,268,0.0,6.0,96,0.00,,,0.00,Wunderground v.1.15,2013-12-30 06:30:00,
2013-12-30 00:40:00,43.6,42.5,30.14,West,268,0.0,6.0,96,0.00,,,0.00,Wunderground v.1.15,2013-12-30 06:40:00,
2013-12-30 00:45:00,43.5,42.4,30.14,SSE,150,0.0,6.0,96,0.00,,,0.00,Wunderground v.1.15,2013-12-30 06:45:00,
2013-12-30 00:50:00,43.3,42.2,30.14,SSE,150,0.0,6.0,96,0.00,,,0.00,Wunderground v.1.15,2013-12-30 06:50:00,
2013-12-30 00:55:00,43.1,42.0,30.14,SSE,150,0.0,6.0,96,0.00,,,0.00,Wunderground v.1.15,2013-12-30 06:55:00,
2013-12-30 01:00:00,43.0,41.9,30.14,SSE,150,0.0,6.0,96,0.00,,,0.00,Wunderground v.1.15,2013-12-30 07:00:00,
2013-12-30 01:05:00,43.0,41.9,30.13,SSE,150,0.0,6.0,96,0.00,,,0.00,Wunderground v.1.15,2013-12-30 07:05:00,
2013-12-30 01:15:00,42.8,41.7,30.14,SSE,150,0.0,6.0,96,0.00,,,0.00,Wunderground v.1.15,2013-12-30 07:15:00,
2013-12-30 01:20:00,43.0,41.9,30.14,SSE,150,0.0,6.0,96,0.00,,,0.00,Wunderground v.1.15,2013-12-30 07:20:00,
2013-12-30 01:25:00,43.2,42.1,30.13,SSE,150,0.0,6.0,96,0.00,,,0.00,Wunderground v.1.15,2013-12-30 07:25:00,
2013-12-30 01:30:00,43.4,42.3,30.13,SSE,150,0.0,6.0,96,0.00,,,0.00,Wunderground v.1.15,2013-12-30 07:30:00,
2013-12-30 01:35:00,43.4,42.3,30.13,SSE,150,0.0,6.0,96,0.00,,,0.00,Wunderground v.1.15,2013-12-30 07:35:00,
2013-12-30 01:45:00,43.5,42.4,30.13,SSE,150,0.0,6.0,96,0.00,,,0.00,Wunderground v.1.15,2013-12-30 07:45:00,
2013-12-30 01:50:00,43.3,42.2,30.13,SSE,150,0.0,6.0,96,0.00,,,0.00,Wunderground v.1.15,2013-12-30 07:50:00,
2013-12-30 01:55:00,43.2,42.1,30.14,SSE,150,0.0,6.0,96,0.00,,,0.00,Wunderground v.1.15,2013-12-30 07:55:00,
2013-12-30 02:00:00,43.1,42.0,30.14,SSE,150,0.0,6.0,96,0.00,,,0.00,Wunderground v.1.15,2013-12-30 08:00:00,
2013-12-30 02:05:00,43.0,41.9,30.14,SSE,150,0.0,6.0,96,0.00,,,0.00,Wunderground v.1.15,2013-12-30 08:05:00,
2013-12-30 02:10:00,43.0,41.9,30.15,NW,316,0.0,6.0,96,0.00,,,0.00,Wunderground v.1.15,2013-12-30 08:10:00,
2013-12-30 02:20:00,43.1,42.0,30.13,West,266,0.0,6.0,96,0.00,,,0.00,Wunderground v.1.15,2013-12-30 08:20:00,
2013-12-30 02:25:00,43.1,42.0,30.12,North,7,1.0,6.0,96,0.00,,,0.00,Wunderground v.1.15,2013-12-30 08:25:00,
2013-12-30 02:30:00,43.3,42.2,30.12,NNW,340,1.0,6.0,96,0.00,,,0.00,Wunderground v.1.15,2013-12-30 08:30:00,
2013-12-30 02:35:00,43.3,42.2,30.13,NNW,328,1.0,6.0,96,0.00,,,0.00,Wunderground v.1.15,2013-12-30 08:35:00,
2013-12-30 02:40:00,43.3,42.2,30.13,NW,325,1.0,1.0,96,0.00,,,0.00,Wunderground v.1.15,2013-12-30 08:40:00,
2013-12-30 02:50:00,43.4,42.1,30.13,NW,311,0.0,6.0,95,0.00,,,0.00,Wunderground v.1.15,2013-12-30 08:50:00,
2013-12-30 02:55:00,43.4,42.1,30.13,NW,311,0.0,6.0,95,0.00,,,0.00,Wunderground v.1.15,2013-12-30 08:55:00,
2013-12-30 03:00:00,43.5,42.2,30.14,NW,311,0.0,6.0,95,0.00,,,0.00,Wunderground v.1.15,2013-12-30 09:00:00,
2013-12-30 03:05:00,43.6,42.3,30.14,NW,311,0.0,6.0,95,0.00,,,0.00,Wunderground v.1.15,2013-12-30 09:05:00,
2013-12-30 03:10:00,43.7,42.4,30.13,NW,311,0.0,6.0,95,0.00,,,0.00,Wunderground v.1.15,2013-12-30 09:10:00,
2013-12-30 03:15:00,43.6,42.0,30.13,NW,311,0.0,6.0,94,0.00,,,0.00,Wunderground v.1.15,2013-12-30 09:15:00,
2013-12-30 03:25:00,43.5,41.9,30.14,NW,304,1.0,6.0,94,0.00,,,0.00,Wunderground v.1.15,2013-12-30 09:25:00,
2013-12-30 03:30:00,43.6,42.0,30.14,NW,304,0.0,6.0,94,0.00,,,0.00,Wunderground v.1.15,2013-12-30 09:30:00,
2013-12-30 03:35:00,43.7,42.1,30.14,NW,304,0.0,6.0,94,0.00,,,0.00,Wunderground v.1.15,2013-12-30 09:35:00,
2013-12-30 03:40:00,43.7,42.1,30.14,NW,304,0.0,6.0,94,0.00,,,0.00,Wunderground v.1.15,2013-12-30 09:40:00,
2013-12-30 03:45:00,43.6,42.0,30.14,NW,304,0.0,6.0,94,0.00,,,0.00,Wunderground v.1.15,2013-12-30 09:45:00,
2013-12-30 03:50:00,43.6,42.0,30.14,NW,304,0.0,6.0,94,0.00,,,0.00,Wunderground v.1.15,2013-12-30 09:50:00,
2013-12-30 03:55:00,43.6,42.0,30.14,NW,304,0.0,6.0,94,0.00,,,0.00,Wunderground v.1.15,2013-12-30 09:55:00,
2013-12-30 04:00:00,43.9,42.3,30.14,NW,304,0.0,6.0,94,0.00,,,0.00,Wunderground v.1.15,2013-12-30 10:00:00,
2013-12-30 04:05:00,44.1,42.2,30.14,NW,304,0.0,6.0,93,0.00,,,0.00,Wunderground v.1.15,2013-12-30 10:05:00,
2013-12-30 04:10:00,44.1,42.2,30.13,NW,304,0.0,6.0,93,0.00,,,0.00,Wunderground v.1.15,2013-12-30 10:10:00,
2013-12-30 04:15:00,44.0,42.1,30.14,NW,304,0.0,6.0,93,0.00,,,0.00,Wunderground v.1.15,2013-12-30 10:15:00,
2013-12-30 04:25:00,44.0,42.1,30.14,NW,304,0.0,6.0,93,0.00,,,0.00,Wunderground v.1.15,2013-12-30 10:25:00,
2013-12-30 04:30:00,44.0,42.1,30.14,NW,304,0.0,6.0,93,0.00,,,0.00,Wunderground v.1.15,2013-12-30 10:30:00,
2013-12-30 04:35:00,44.0,42.1,30.13,NW,304,0.0,6.0,93,0.00,,,0.00,Wunderground v.1.15,2013-12-30 10:35:00,
2013-12-30 04:40:00,44.0,42.1,30.14,NW,304,0.0,6.0,93,0.00,,,0.00,Wunderground v.1.15,2013-12-30 10:40:00,
2013-12-30 04:45:00,44.2,42.3,30.14,NW,304,0.0,6.0,93,0.00,,,0.00,Wunderground v.1.15,2013-12-30 10:45:00,
2013-12-30 04:50:00,44.3,42.1,30.14,NW,304,0.0,6.0,92,0.00,,,0.00,Wunderground v.1.15,2013-12-30 10:50:00,
2013-12-30 05:00:00,44.2,42.3,30.14,NW,304,0.0,6.0,93,0.00,,,0.00,Wunderground v.1.15,2013-12-30 11:00:00,
2013-12-30 05:05:00,44.3,42.4,30.14,NW,304,0.0,6.0,93,0.00,,,0.00,Wunderground v.1.15,2013-12-30 11:05:00,
2013-12-30 05:10:00,44.2,42.3,30.14,NW,304,0.0,6.0,93,0.00,,,0.00,Wunderground v.1.15,2013-12-30 11:10:00,
2013-12-30 05:15:00,44.0,42.1,30.14,NW,304,0.0,6.0,93,0.00,,,0.00,Wunderground v.1.15,2013-12-30 11:15:00,
2013-12-30 05:20:00,43.9,42.3,30.14,NW,304,0.0,6.0,94,0.00,,,0.00,Wunderground v.1.15,2013-12-30 11:20:00,
2013-12-30 05:30:00,44.0,42.7,30.13,NW,304,0.0,6.0,95,0.00,,,0.00,Wunderground v.1.15,2013-12-30 11:30:00,
2013-12-30 05:35:00,43.9,42.6,30.14,NW,304,0.0,6.0,95,0.00,,,0.00,Wunderground v.1.15,2013-12-30 11:35:00,
2013-12-30 05:40:00,43.9,42.6,30.14,NW,319,0.0,6.0,95,0.00,,,0.00,Wunderground v.1.15,2013-12-30 11:40:00,
2013-12-30 05:45:00,44.2,42.9,30.14,NW,319,0.0,6.0,95,0.00,,,0.00,Wunderground v.1.15,2013-12-30 11:45:00,
2013-12-30 05:50:00,44.3,43.0,30.14,NW,319,0.0,6.0,95,0.00,,,0.00,Wunderground v.1.15,2013-12-30 11:50:00,
2013-12-30 05:55:00,44.4,43.1,30.15,NW,319,0.0,6.0,95,0.00,,,0.00,Wunderground v.1.15,2013-12-30 11:55:00,
2013-12-30 06:05:00,44.6,43.3,30.14,NW,319,0.0,6.0,95,0.00,,,0.00,Wunderground v.1.15,2013-12-30 12:05:00,
2013-12-30 06:10:00,44.6,43.3,30.14,NW,319,0.0,6.0,95,0.00,,,0.00,Wunderground v.1.15,2013-12-30 12:10:00,
2013-12-30 06:15:00,44.7,43.4,30.14,NW,319,0.0,6.0,95,0.00,,,0.00,Wunderground v.1.15,2013-12-30 12:15:00,
2013-12-30 06:20:00,45.0,43.4,30.15,NW,319,0.0,6.0,94,0.00,,,0.00,Wunderground v.1.15,2013-12-30 12:20:00,
2013-12-30 06:25:00,45.3,43.7,30.14,NW,319,0.0,6.0,94,0.00,,,0.00,Wunderground v.1.15,2013-12-30 12:25:00,
2013-12-30 06:35:00,45.3,43.7,30.15,NW,319,0.0,6.0,94,0.00,,,0.00,Wunderground v.1.15,2013-12-30 12:35:00,
2013-12-30 06:40:00,45.1,43.2,30.15,NW,319,0.0,6.0,93,0.00,,,0.00,Wunderground v.1.15,2013-12-30 12:40:00,
2013-12-30 06:45:00,44.8,43.2,30.15,NW,319,0.0,6.0,94,0.00,,,0.00,Wunderground v.1.15,2013-12-30 12:45:00,
2013-12-30 06:50:00,44.7,43.1,30.15,NW,319,0.0,6.0,94,0.00,,,0.00,Wunderground v.1.15,2013-12-30 12:50:00,
2013-12-30 06:55:00,44.5,42.9,30.15,NW,319,0.0,6.0,94,0.00,,,0.00,Wunderground v.1.15,2013-12-30 12:55:00,
2013-12-30 07:00:00,44.4,42.8,30.16,NW,319,0.0,6.0,94,0.00,,,0.00,Wunderground v.1.15,2013-12-30 13:00:00,
2013-12-30 07:05:00,44.4,42.8,30.16,NW,319,0.0,6.0,94,0.00,,,0.00,Wunderground v.1.15,2013-12-30 13:05:00,
2013-12-30 07:10:00,44.4,43.1,30.16,ESE,116,0.0,6.0,95,0.00,,,0.00,Wunderground v.1.15,2013-12-30 13:10:00,
2013-12-30 07:15:00,44.4,43.1,30.16,ESE,116,0.0,6.0,95,0.00,,,0.00,Wunderground v.1.15,2013-12-30 13:15:00,
2013-12-30 07:20:00,44.4,43.1,30.17,ESE,116,0.0,6.0,95,0.00,,,0.00,Wunderground v.1.15,2013-12-30 13:20:00,
2013-12-30 07:25:00,44.4,43.1,30.17,ESE,115,0.0,6.0,95,0.00,,,0.00,Wunderground v.1.15,2013-12-30 13:25:00,
2013-12-30 07:30:00,44.4,43.1,30.17,ESE,115,0.0,6.0,95,0.00,,,0.00,Wunderground v.1.15,2013-12-30 13:30:00,
2013-12-30 07:40:00,44.7,43.6,30.18,ESE,115,0.0,6.0,96,0.00,,,0.00,Wunderground v.1.15,2013-12-30 13:40:00,
2013-12-30 07:45:00,45.3,44.2,30.18,NW,314,0.0,6.0,96,0.00,,,0.00,Wunderground v.1.15,2013-12-30 13:45:00,
2013-12-30 07:50:00,45.8,44.4,30.18,NW,314,0.0,6.0,95,0.00,,,0.00,Wunderground v.1.15,2013-12-30 13:50:00,
2013-12-30 07:55:00,46.2,44.3,30.18,NNW,337,0.0,6.0,93,0.00,,,0.00,Wunderground v.1.15,2013-12-30 13:55:00,
2013-12-30 08:00:00,46.7,44.2,30.19,NW,319,0.0,6.0,91,0.00,,,0.00,Wunderground v.1.15,2013-12-30 14:00:00,
2013-12-30 08:10:00,47.6,44.2,30.20,NW,323,1.0,6.0,88,0.00,,,0.00,Wunderground v.1.15,2013-12-30 14:10:00,
2013-12-30 08:15:00,47.9,44.2,30.20,NNW,329,2.0,6.0,87,0.00,,,0.00,Wunderground v.1.15,2013-12-30 14:15:00,
2013-12-30 08:20:00,48.0,44.3,30.20,NW,323,1.0,6.0,87,0.00,,,0.00,Wunderground v.1.15,2013-12-30 14:20:00,
2013-12-30 08:25:00,48.2,44.5,30.21,NNW,330,2.0,6.0,87,0.00,,,0.00,Wunderground v.1.15,2013-12-30 14:25:00,
2013-12-30 08:30:00,48.3,44.6,30.20,NNW,327,3.0,3.0,87,0.00,,,0.00,Wunderground v.1.15,2013-12-30 14:30:00,
2013-12-30 08:35:00,48.3,44.6,30.21,NW,323,2.0,6.0,87,0.00,,,0.00,Wunderground v.1.15,2013-12-30 14:35:00,
2013-12-30 08:45:00,48.6,45.2,30.22,NW,323,1.0,6.0,88,0.00,,,0.00,Wunderground v.1.15,2013-12-30 14:45:00,
2013-12-30 08:50:00,48.7,45.3,30.22,NNW,343,2.0,2.0,88,0.00,,,0.00,Wunderground v.1.15,2013-12-30 14:50:00,
2013-12-30 08:55:00,48.7,45.0,30.22,North,354,1.0,6.0,87,0.00,,,0.00,Wunderground v.1.15,2013-12-30 14:55:00,
2013-12-30 09:00:00,48.8,45.4,30.23,NW,326,1.0,6.0,88,0.00,,,0.00,Wunderground v.1.15,2013-12-30 15:00:00,
2013-12-30 09:05:00,48.8,45.1,30.23,NW,316,1.0,6.0,87,0.00,,,0.00,Wunderground v.1.15,2013-12-30 15:05:00,
2013-12-30 09:15:00,48.8,45.4,30.24,NW,307,2.0,6.0,88,0.00,,,0.00,Wunderground v.1.15,2013-12-30 15:15:00,
2013-12-30 09:20:00,48.9,45.5,30.24,NNW,336,2.0,6.0,88,0.00,,,0.00,Wunderground v.1.15,2013-12-30 15:20:00,
2013-12-30 09:25:00,48.9,45.5,30.24,NW,325,3.0,6.0,88,0.00,,,0.00,Wunderground v.1.15,2013-12-30 15:25:00,
2013-12-30 09:30:00,48.9,45.5,30.25,NW,312,3.0,3.0,88,0.00,,,0.00,Wunderground v.1.15,2013-12-30 15:30:00,
2013-12-30 09:35:00,49.0,45.9,30.26,NNW,337,3.0,6.0,89,0.00,,,0.00,Wunderground v.1.15,2013-12-30 15:35:00,
2013-12-30 09:40:00,49.1,46.0,30.26,NW,311,3.0,6.0,89,0.00,,,0.00,Wunderground v.1.15,2013-12-30 15:40:00,
2013-12-30 09:50:00,49.0,45.6,30.26,NW,321,4.0,6.0,88,0.00,,,0.00,Wunderground v.1.15,2013-12-30 15:50:00,
2013-12-30 09:55:00,49.1,46.0,30.26,NNE,23,3.0,6.0,89,0.00,,,0.00,Wunderground v.1.15,2013-12-30 15:55:00,
2013-12-30 10:00:00,49.1,45.7,30.26,NW,326,2.0,6.0,88,0.00,,,0.00,Wunderground v.1.15,2013-12-30 16:00:00,
2013-12-30 10:05:00,49.2,45.8,30.26,NNW,338,2.0,6.0,88,0.00,,,0.00,Wunderground v.1.15,2013-12-30 16:05:00,
2013-12-30 10:10:00,49.4,45.7,30.25,NNW,342,3.0,3.0,87,0.00,,,0.00,Wunderground v.1.15,2013-12-30 16:10:00,
2013-12-30 10:20:00,49.4,46.0,30.25,NW,322,3.0,6.0,88,0.00,,,0.00,Wunderground v.1.15,2013-12-30 16:20:00,
2013-12-30 10:25:00,49.4,45.7,30.25,NNW,333,3.0,6.0,87,0.00,,,0.00,Wunderground v.1.15,2013-12-30 16:25:00,
2013-12-30 10:30:00,49.6,45.9,30.25,NW,309,3.0,6.0,87,0.00,,,0.00,Wunderground v.1.15,2013-12-30 16:30:00,
2013-12-30 10:35:00,49.7,45.7,30.25,NNW,335,3.0,6.0,86,0.00,,,0.00,Wunderground v.1.15,2013-12-30 16:35:00,
2013-12-30 10:40:00,49.6,45.6,30.26,NNW,345,4.0,4.0,86,0.00,,,0.00,Wunderground v.1.15,2013-12-30 16:40:00,
2013-12-30 10:45:00,49.7,46.0,30.25,NE,38,5.0,5.0,87,0.00,,,0.00,Wunderground v.1.15,2013-12-30 16:45:00,
2013-12-30 10:55:00,49.8,45.8,30.25,North,350,4.0,6.0,86,0.00,,,0.00,Wunderground v.1.15,2013-12-30 16:55:00,
2013-12-30 11:00:00,49.8,46.1,30.25,NNE,17,4.0,6.0,87,0.00,,,0.00,Wunderground v.1.15,2013-12-30 17:00:00,
2013-12-30 11:05:00,49.9,45.9,30.25,NNW,342,4.0,6.0,86,0.00,,,0.00,Wunderground v.1.15,2013-12-30 17:05:00,
2013-12-30 11:10:00,50.0,46.3,30.26,NNW,340,4.0,4.0,87,0.00,,,0.00,Wunderground v.1.15,2013-12-30 17:10:00,
2013-12-30 11:15:00,50.0,46.0,30.26,NNW,343,3.0,6.0,86,0.00,,,0.00,Wunderground v.1.15,2013-12-30 17:15:00,
2013-12-30 11:20:00,50.1,46.1,30.26,NNW,333,3.0,6.0,86,0.00,,,0.00,Wunderground v.1.15,2013-12-30 17:20:00,
2013-12-30 11:25:00,50.4,46.4,30.26,NW,319,3.0,6.0,86,0.00,,,0.00,Wunderground v.1.15,2013-12-30 17:25:00,
2013-12-30 11:30:00,50.4,46.1,30.26,NNW,345,3.0,3.0,85,0.00,,,0.00,Wunderground v.1.15,2013-12-30 17:30:00,
2013-12-30 11:40:00,50.6,46.3,30.25,NNW,345,2.0,6.0,85,0.00,,,0.00,Wunderground v.1.15,2013-12-30 17:40:00,
2013-12-30 11:45:00,50.7,46.7,30.25,NNW,340,3.0,6.0,86,0.00,,,0.00,Wunderground v.1.15,2013-12-30 17:45:00,
2013-12-30 11:50:00,50.8,46.5,30.25,NW,323,3.0,3.0,85,0.00,,,0.00,Wunderground v.1.15,2013-12-30 17:50:00,
2013-12-30 11:55:00,50.9,46.6,30.25,NW,326,2.0,6.0,85,0.00,,,0.00,Wunderground v.1.15,2013-12-30 17:55:00,
2013-12-30 12:00:00,50.9,46.6,30.25,NW,309,2.0,2.0,85,0.00,,,0.00,Wunderground v.1.15,2013-12-30 18:00:00,
2013-12-30 12:05:00,51.0,46.6,30.24,North,3,1.0,6.0,85,0.00,,,0.00,Wunderground v.1.15,2013-12-30 18:05:00,
2013-12-30 12:10:00,51.1,46.4,30.23,North,2,1.0,6.0,84,0.00,,,0.00,Wunderground v.1.15,2013-12-30 18:10:00,
2013-12-30 12:15:00,51.2,46.5,30.23,NE,51,1.0,6.0,84,0.00,,,0.00,Wunderground v.1.15,2013-12-30 18:15:00,
2013-12-30 12:20:00,51.1,46.7,30.22,NE,51,2.0,6.0,85,0.00,,,0.00,Wunderground v.1.15,2013-12-30 18:20:00,
2013-12-30 12:30:00,51.1,46.7,30.22,NNE,22,3.0,6.0,85,0.00,,,0.00,Wunderground v.1.15,2013-12-30 18:30:00,
2013-12-30 12:35:00,51.1,46.7,30.22,North,350,2.0,6.0,85,0.00,,,0.00,Wunderground v.1.15,2013-12-30 18:35:00,
2013-12-30 12:40:00,51.3,46.9,30.21,NNE,23,2.0,6.0,85,0.00,,,0.00,Wunderground v.1.15,2013-12-30 18:40:00,
2013-12-30 12:45:00,51.3,46.9,30.20,NNE,30,2.0,6.0,85,0.00,,,0.00,Wunderground v.1.15,2013-12-30 18:45:00,
2013-12-30 12:50:00,51.3,46.9,30.20,NNW,342,2.0,2.0,85,0.00,,,0.00,Wunderground v.1.15,2013-12-30 18:50:00,
2013-12-30 13:00:00,51.5,46.8,30.20,NW,319,3.0,6.0,84,0.00,,,0.00,Wunderground v.1.15,2013-12-30 19:00:00,
2013-12-30 13:05:00,51.5,47.1,30.21,NNW,342,4.0,6.0,85,0.00,,,0.00,Wunderground v.1.15,2013-12-30 19:05:00,
2013-12-30 13:10:00,51.5,47.1,30.21,ENE,65,4.0,4.0,85,0.00,,,0.00,Wunderground v.1.15,2013-12-30 19:10:00,
2013-12-30 13:15:00,51.5,47.1,30.21,North,360,4.0,6.0,85,0.00,,,0.00,Wunderground v.1.15,2013-12-30 19:15:00,
2013-12-30 13:20:00,51.4,46.7,30.20,ENE,77,3.0,3.0,84,0.00,,,0.00,Wunderground v.1.15,2013-12-30 19:20:00,
2013-12-30 13:25:00,51.3,46.6,30.20,NE,34,3.0,4.0,84,0.00,,,0.00,Wunderground v.1.15,2013-12-30 19:25:00,
2013-12-30 13:35:00,51.4,46.7,30.20,North,6,4.0,6.0,84,0.00,,,0.00,Wunderground v.1.15,2013-12-30 19:35:00,
2013-12-30 13:40:00,51.2,46.8,30.20,NNE,22,3.0,6.0,85,0.00,,,0.00,Wunderground v.1.15,2013-12-30 19:40:00,
2013-12-30 13:45:00,51.3,46.9,30.21,NW,306,3.0,6.0,85,0.00,,,0.00,Wunderground v.1.15,2013-12-30 19:45:00,
2013-12-30 13:50:00,51.4,47.0,30.21,North,359,3.0,6.0,85,0.00,,,0.00,Wunderground v.1.15,2013-12-30 19:50:00,
2013-12-30 13:55:00,51.5,47.1,30.21,NNW,348,3.0,6.0,85,0.00,,,0.00,Wunderground v.1.15,2013-12-30 19:55:00,
2013-12-30 14:05:00,51.5,47.5,30.20,NNW,347,2.0,6.0,86,0.00,,,0.00,Wunderground v.1.15,2013-12-30 20:05:00,
2013-12-30 14:10:00,51.6,47.2,30.20,North,354,2.0,2.0,85,0.00,,,0.00,Wunderground v.1.15,2013-12-30 20:10:00,
2013-12-30 14:15:00,51.6,47.2,30.21,NNW,330,2.0,3.0,85,0.00,,,0.00,Wunderground v.1.15,2013-12-30 20:15:00,
2013-12-30 14:20:00,51.3,46.9,30.21,NW,312,3.0,3.0,85,0.00,,,0.00,Wunderground v.1.15,2013-12-30 20:20:00,
2013-12-30 14:25:00,51.0,46.6,30.20,NW,309,4.0,4.0,85,0.00,,,0.00,Wunderground v.1.15,2013-12-30 20:25:00,
2013-12-30 14:30:00,50.8,46.8,30.20,NNW,340,3.0,3.0,86,0.00,,,0.00,Wunderground v.1.15,2013-12-30 20:30:00,
2013-12-30 14:40:00,50.6,46.3,30.20,NNW,329,4.0,6.0,85,0.00,,,0.00,Wunderground v.1.15,2013-12-30 20:40:00,
2013-12-30 14:45:00,50.3,46.0,30.21,NNW,330,4.0,6.0,85,0.00,,,0.00,Wunderground v.1.15,2013-12-30 20:45:00,
2013-12-30 14:50:00,50.2,46.2,30.21,NW,321,4.0,4.0,86,0.00,,,0.00,Wunderground v.1.15,2013-12-30 20:50:00,
2013-12-30 14:55:00,50.1,46.1,30.21,NW,318,3.0,6.0,86,0.00,,,0.00,Wunderground v.1.15,2013-12-30 20:55:00,
2013-12-30 15:00:00,50.0,46.0,30.21,NNW,333,3.0,6.0,86,0.00,,,0.00,Wunderground v.1.15,2013-12-30 21:00:00,
2013-12-30 15:10:00,49.8,45.8,30.22,North,360,4.0,6.0,86,0.00,,,0.00,Wunderground v.1.15,2013-12-30 21:10:00,
2013-12-30 15:15:00,49.6,45.3,30.21,NNW,328,4.0,6.0,85,0.00,,,0.00,Wunderground v.1.15,2013-12-30 21:15:00,
2013-12-30 15:20:00,49.6,45.6,30.22,NNW,341,4.0,4.0,86,0.00,,,0.00,Wunderground v.1.15,2013-12-30 21:20:00,
2013-12-30 15:25:00,49.7,45.4,30.22,North,353,3.0,6.0,85,0.00,,,0.00,Wunderground v.1.15,2013-12-30 21:25:00,
2013-12-30 15:30:00,49.5,45.2,30.21,NNW,337,3.0,6.0,85,0.00,,,0.00,Wunderground v.1.15,2013-12-30 21:30:00,
2013-12-30 15:35:00,49.4,45.1,30.22,NW,324,3.0,6.0,85,0.00,,,0.00,Wunderground v.1.15,2013-12-30 21:35:00,
2013-12-30 15:40:00,49.4,45.1,30.21,NW,320,2.0,6.0,85,0.00,,,0.00,Wunderground v.1.15,2013-12-30 21:40:00,
2013-12-30 15:45:00,49.4,45.1,30.22,NW,309,2.0,6.0,85,0.00,,,0.00,Wunderground v.1.15,2013-12-30 21:45:00,
2013-12-30 15:50:00,49.4,45.1,30.22,NW,323,2.0,6.0,85,0.00,,,0.00,Wunderground v.1.15,2013-12-30 21:50:00,
2013-12-30 15:55:00,49.4,45.1,30.22,NW,320,2.0,6.0,85,0.00,,,0.00,Wunderground v.1.15,2013-12-30 21:55:00,
2013-12-30 16:00:00,49.4,44.8,30.22,NW,304,1.0,1.0,84,0.00,,,0.00,Wunderground v.1.15,2013-12-30 22:00:00,
2013-12-30 16:05:00,49.4,45.1,30.22,NW,312,1.0,6.0,85,0.00,,,0.00,Wunderground v.1.15,2013-12-30 22:05:00,
2013-12-30 16:15:00,49.3,45.0,30.22,NW,325,1.0,6.0,85,0.00,,,0.00,Wunderground v.1.15,2013-12-30 22:15:00,
2013-12-30 16:20:00,49.2,44.9,30.23,NW,324,1.0,6.0,85,0.00,,,0.00,Wunderground v.1.15,2013-12-30 22:20:00,
2013-12-30 16:25:00,49.2,44.9,30.23,NW,315,2.0,6.0,85,0.00,,,0.00,Wunderground v.1.15,2013-12-30 22:25:00,
2013-12-30 16:30:00,49.1,44.8,30.23,North,1,2.0,2.0,85,0.00,,,0.00,Wunderground v.1.15,2013-12-30 22:30:00,
2013-12-30 16:35:00,49.1,44.8,30.24,NNW,339,1.0,3.0,85,0.00,,,0.00,Wunderground v.1.15,2013-12-30 22:35:00,
2013-12-30 16:45:00,48.8,44.2,30.24,NNW,332,3.0,6.0,84,0.00,,,0.00,Wunderground v.1.15,2013-12-30 22:45:00,
2013-12-30 16:50:00,48.6,44.0,30.24,NW,323,3.0,6.0,84,0.00,,,0.00,Wunderground v.1.15,2013-12-30 22:50:00,
2013-12-30 16:55:00,48.6,44.3,30.24,NNW,328,3.0,6.0,85,0.00,,,0.00,Wunderground v.1.15,2013-12-30 22:55:00,
2013-12-30 17:00:00,48.5,43.9,30.25,North,8,3.0,6.0,84,0.00,,,0.00,Wunderground v.1.15,2013-12-30 23:00:00,
2013-12-30 17:05:00,48.4,44.1,30.24,NNW,347,3.0,6.0,85,0.00,,,0.00,Wunderground v.1.15,2013-12-30 23:05:00,
2013-12-30 17:10:00,48.3,44.0,30.25,NNW,329,2.0,6.0,85,0.00,,,0.00,Wunderground v.1.15,2013-12-30 23:10:00,
2013-12-30 17:20:00,48.1,43.8,30.24,NNW,332,2.0,2.0,85,0.00,,,0.00,Wunderground v.1.15,2013-12-30 23:20:00,
2013-12-30 17:25:00,48.0,43.7,30.25,NW,311,1.0,6.0,85,0.00,,,0.00,Wunderground v.1.15,2013-12-30 23:25:00,
2013-12-30 17:30:00,48.0,44.0,30.26,NNW,334,2.0,6.0,86,0.00,,,0.00,Wunderground v.1.15,2013-12-30 23:30:00,
2013-12-30 17:35:00,47.9,43.9,30.26,NNW,330,3.0,6.0,86,0.00,,,0.00,Wunderground v.1.15,2013-12-30 23:35:00,
2013-12-30 17:40:00,47.8,44.1,30.26,NW,319,3.0,6.0,87,0.00,,,0.00,Wunderground v.1.15,2013-12-30 23:40:00,
2013-12-30 17:50:00,47.8,43.8,30.26,North,9,3.0,3.0,86,0.00,,,0.00,Wunderground v.1.15,2013-12-30 23:50:00,
2013-12-30 17:55:00,47.7,43.7,30.26,North,359,2.0,4.0,86,0.00,,,0.00,Wunderground v.1.15,2013-12-30 23:55:00,
2013-12-30 18:00:00,47.8,43.8,30.27,NNW,337,3.0,6.0,86,0.00,,,0.00,Wunderground v.1.15,2013-12-31 00:00:00,
2013-12-30 18:05:00,47.7,43.7,30.26,North,7,3.0,6.0,86,0.00,,,0.00,Wunderground v.1.15,2013-12-31 00:05:00,
2013-12-30 18:10:00,47.8,43.8,30.27,NW,314,3.0,3.0,86,0.00,,,0.00,Wunderground v.1.15,2013-12-31 00:10:00,
2013-12-30 18:15:00,47.8,43.5,30.27,NW,306,2.0,6.0,85,0.00,,,0.00,Wunderground v.1.15,2013-12-31 00:15:00,
2013-12-30 18:25:00,47.7,43.1,30.27,North,4,3.0,6.0,84,0.00,,,0.00,Wunderground v.1.15,2013-12-31 00:25:00,
2013-12-30 18:30:00,47.7,43.4,30.28,NW,313,2.0,6.0,85,0.00,,,0.00,Wunderground v.1.15,2013-12-31 00:30:00,
2013-12-30 18:35:00,47.7,43.4,30.29,NNW,344,3.0,6.0,85,0.00,,,0.00,Wunderground v.1.15,2013-12-31 00:35:00,
2013-12-30 18:40:00,47.7,43.1,30.29,North,359,3.0,3.0,84,0.00,,,0.00,Wunderground v.1.15,2013-12-31 00:40:00,
2013-12-30 18:45:00,47.6,43.0,30.28,NNW,334,3.0,6.0,84,0.00,,,0.00,Wunderground v.1.15,2013-12-31 00:45:00,
2013-12-30 18:55:00,47.6,43.3,30.29,North,1,3.0,6.0,85,0.00,,,0.00,Wunderground v.1.15,2013-12-31 00:55:00,
2013-12-30 19:00:00,47.6,43.3,30.29,North,352,3.0,3.0,85,0.00,,,0.00,Wunderground v.1.15,2013-12-31 01:00:00,
2013-12-30 19:05:00,47.5,43.2,30.28,North,354,2.0,6.0,85,0.00,,,0.00,Wunderground v.1.15,2013-12-31 01:05:00,
2013-12-30 19:10:00,47.4,43.1,30.28,NE,39,2.0,6.0,85,0.00,,,0.00,Wunderground v.1.15,2013-12-31 01:10:00,
2013-12-30 19:15:00,47.4,42.8,30.29,NNW,342,4.0,6.0,84,0.00,,,0.00,Wunderground v.1.15,2013-12-31 01:15:00,
2013-12-30 19:20:00,47.4,43.1,30.29,North,355,3.0,6.0,85,0.00,,,0.00,Wunderground v.1.15,2013-12-31 01:20:00,
2013-12-30 19:30:00,47.3,42.7,30.29,NE,38,3.0,6.0,84,0.00,,,0.00,Wunderground v.1.15,2013-12-31 01:30:00,
2013-12-30 19:35:00,47.3,42.7,30.29,NW,325,2.0,6.0,84,0.00,,,0.00,Wunderground v.1.15,2013-12-31 01:35:00,
2013-12-30 19:40:00,47.2,42.6,30.29,East,86,1.0,1.0,84,0.00,,,0.00,Wunderground v.1.15,2013-12-31 01:40:00,
2013-12-30 19:45:00,47.1,42.5,30.29,NNE,17,1.0,2.0,84,0.00,,,0.00,Wunderground v.1.15,2013-12-31 01:45:00,
2013-12-30 19:50:00,47.1,42.8,30.30,North,359,2.0,6.0,85,0.00,,,0.00,Wunderground v.1.15,2013-12-31 01:50:00,
2013-12-30 19:55:00,47.0,42.7,30.30,NNE,13,2.0,6.0,85,0.00,,,0.00,Wunderground v.1.15,2013-12-31 01:55:00,
2013-12-30 20:00:00,47.0,42.7,30.30,NE,52,3.0,3.0,85,0.00,,,0.00,Wunderground v.1.15,2013-12-31 02:00:00,
2013-12-30 20:05:00,46.9,42.3,30.31,North,8,3.0,6.0,84,0.00,,,0.00,Wunderground v.1.15,2013-12-31 02:05:00,
2013-12-30 20:10:00,46.9,42.6,30.30,North,11,2.0,6.0,85,0.00,,,0.00,Wunderground v.1.15,2013-12-31 02:10:00,
2013-12-30 20:20:00,46.8,42.5,30.31,NNW,338,3.0,3.0,85,0.00,,,0.00,Wunderground v.1.15,2013-12-31 02:20:00,
2013-12-30 20:25:00,46.8,42.5,30.31,NNW,348,3.0,6.0,85,0.00,,,0.00,Wunderground v.1.15,2013-12-31 02:25:00,
2013-12-30 20:30:00,46.8,42.2,30.32,North,8,4.0,6.0,84,0.00,,,0.00,Wunderground v.1.15,2013-12-31 02:30:00,
2013-12-30 20:35:00,46.8,42.2,30.32,NNW,338,3.0,6.0,84,0.00,,,0.00,Wunderground v.1.15,2013-12-31 02:35:00,
2013-12-30 20:40:00,46.7,42.1,30.32,NE,40,3.0,3.0,84,0.00,,,0.00,Wunderground v.1.15,2013-12-31 02:40:00,
2013-12-30 20:45:00,46.7,42.1,30.32,North,1,3.0,6.0,84,0.00,,,0.00,Wunderground v.1.15,2013-12-31 02:45:00,
2013-12-30 20:50:00,46.7,42.4,30.33,NE,39,2.0,6.0,85,0.00,,,0.00,Wunderground v.1.15,2013-12-31 02:50:00,
2013-12-30 20:55:00,46.6,42.0,30.33,NE,35,2.0,6.0,84,0.00,,,0.00,Wunderground v.1.15,2013-12-31 02:55:00,
2013-12-30 21:05:00,46.7,42.4,30.33,North,352,2.0,6.0,85,0.00,,,0.00,Wunderground v.1.15,2013-12-31 03:05:00,
2013-12-30 21:10:00,46.7,42.4,30.33,NNE,30,2.0,6.0,85,0.00,,,0.00,Wunderground v.1.15,2013-12-31 03:10:00,
2013-12-30 21:15:00,46.7,42.4,30.33,NE,46,2.0,6.0,85,0.00,,,0.00,Wunderground v.1.15,2013-12-31 03:15:00,
2013-12-30 21:20:00,46.6,42.3,30.33,North,4,2.0,2.0,85,0.00,,,0.00,Wunderground v.1.15,2013-12-31 03:20:00,
2013-12-30 21:25:00,46.6,42.3,30.34,NE,39,2.0,6.0,85,0.00,,,0.00,Wunderground v.1.15,2013-12-31 03:25:00,
2013-12-30 21:35:00,46.5,41.9,30.34,North,10,2.0,6.0,84,0.00,,,0.00,Wunderground v.1.15,2013-12-31 03:35:00,
2013-12-30 21:40:00,46.4,42.1,30.33,NNE,19,2.0,2.0,85,0.00,,,0.00,Wunderground v.1.15,2013-12-31 03:40:00,
2013-12-30 21:45:00,46.4,41.8,30.34,NE,39,2.0,3.0,84,0.00,,,0.00,Wunderground v.1.15,2013-12-31 03:45:00,
2013-12-30 21:50:00,46.4,41.8,30.35,North,8,2.0,2.0,84,0.00,,,0.00,Wunderground v.1.15,2013-12-31 03:50:00,
2013-12-30 21:55:00,46.3,41.7,30.34,NE,45,2.0,6.0,84,0.00,,,0.00,Wunderground v.1.15,2013-12-31 03:55:00,
2013-12-30 22:00:00,46.3,41.7,30.35,ENE,58,2.0,2.0,84,0.00,,,0.00,Wunderground v.1.15,2013-12-31 04:00:00,
2013-12-30 22:10:00,46.2,41.9,30.35,NNE,30,3.0,6.0,85,0.00,,,0.00,Wunderground v.1.15,2013-12-31 04:10:00,
2013-12-30 22:15:00,46.2,41.9,30.36,NNW,344,3.0,6.0,85,0.00,,,0.00,Wunderground v.1.15,2013-12-31 04:15:00,
2013-12-30 22:20:00,46.2,41.9,30.36,North,1,2.0,6.0,85,0.00,,,0.00,Wunderground v.1.15,2013-12-31 04:20:00,
2013-12-30 22:25:00,46.1,41.8,30.36,NE,48,1.0,6.0,85,0.00,,,0.00,Wunderground v.1.15,2013-12-31 04:25:00,
2013-12-30 22:30:00,46.1,41.8,30.36,NE,56,2.0,6.0,85,0.00,,,0.00,Wunderground v.1.15,2013-12-31 04:30:00,
2013-12-30 22:40:00,45.9,41.3,30.37,NNW,346,2.0,6.0,84,0.00,,,0.00,Wunderground v.1.15,2013-12-31 04:40:00,
2013-12-30 22:45:00,45.7,41.4,30.37,NNW,341,2.0,6.0,85,0.00,,,0.00,Wunderground v.1.15,2013-12-31 04:45:00,
2013-12-30 22:50:00,45.6,41.7,30.38,NNW,345,2.0,6.0,86,0.00,,,0.00,Wunderground v.1.15,2013-12-31 04:50:00,
2013-12-30 22:55:00,45.6,41.0,30.37,NNE,26,4.0,6.0,84,0.00,,,0.00,Wunderground v.1.15,2013-12-31 04:55:00,
2013-12-30 23:00:00,45.6,40.7,30.37,NE,56,5.0,5.0,83,0.00,,,0.00,Wunderground v.1.15,2013-12-31 05:00:00,
2013-12-30 23:05:00,45.5,40.6,30.36,NNE,27,5.0,6.0,83,0.00,,,0.00,Wunderground v.1.15,2013-12-31 05:05:00,
2013-12-30 23:10:00,45.5,40.6,30.36,NE,44,4.0,4.0,83,0.00,,,0.00,Wunderground v.1.15,2013-12-31 05:10:00,
2013-12-30 23:15:00,45.4,40.5,30.36,North,1,4.0,6.0,83,0.00,,,0.00,Wunderground v.1.15,2013-12-31 05:15:00,
2013-12-30 23:20:00,45.3,40.4,30.36,NNE,18,5.0,6.0,83,0.00,,,0.00,Wunderground v.1.15,2013-12-31 05:20:00,
2013-12-30 23:25:00,45.2,40.7,30.36,NNW,346,4.0,6.0,84,0.00,,,0.00,Wunderground v.1.15,2013-12-31 05:25:00,
2013-12-30 23:30:00,45.0,40.5,30.36,North,4,3.0,6.0,84,0.00,,,0.00,Wunderground v.1.15,2013-12-31 05:30:00,
2013-12-30 23:35:00,44.9,40.7,30.37,NNE,18,3.0,6.0,85,0.00,,,0.00,Wunderground v.1.15,2013-12-31 05:35:00,
2013-12-30 23:45:00,44.7,40.5,30.36,NNE,23,2.0,6.0,85,0.00,,,0.00,Wunderground v.1.15,2013-12-31 05:45:00,
2013-12-30 23:50:00,44.7,40.5,30.36,NE,40,2.0,6.0,85,0.00,,,0.00,Wunderground v.1.15,2013-12-31 05:50:00,
2013-12-30 23:55:00,44.7,40.2,30.36,NNW,345,3.0,6.0,84,0.00,,,0.00,Wunderground v.1.15,2013-12-31 05:55:00,